Regional Weather Roundup
Issued by NWS

Home | Current Version | Previous Version | Graphics & Text | Print | Product List | Glossary On
Versions: 1 2 3 4 5 6 7 8 9 10 11 12 13 14 15 16 17 18 19 20 21 22 23 24 25 26 27 28 29 30 31 32 33 34 35 36 37 38 39 40 41 42 43 44 45 46 47 48 49 50
000
ASUS43 KLSX 132307
RWRMO

WEATHER SUMMARY FOR MISSOURI
NATIONAL WEATHER SERVICE SPRINGFIELD MO
500 PM CST WED DEC 13 2017

NOTE: "FAIR" INDICATES FEW OR NO CLOUDS BELOW 12,000 FEET WITH NO
       SIGNIFICANT WEATHER AND/OR OBSTRUCTIONS TO VISIBILITY.
       CURRENT SKY AND/OR WEATHER CONDITIONS ARE NOT AVAILABLE FOR
       CHILLICOTHE AND FARMINGTON.

MOZ001>031-035>038-043-044-053-054-140000-
...NORTHERN AND WESTERN MISSOURI...

CITY           SKY/WX    TMP DP  RH WIND       PRES   REMARKS
KANSAS CTY INT PTCLDY    51  28  41 NW10G20   29.79R
KANSAS C DTWN  CLEAR     55  27  34 NW13      29.79R
LEE`S SUMMIT   CLEAR     54  27  35 NW17      29.80R
ST JOSEPH      CLEAR     50  30  46 NW15G29   29.81R
CHILLICOTHE      N/A     49  28  44 NW13G21   29.77R
KIRKSVILLE     PTCLDY    43  34  70 NW15G23   29.74R

$$
MOZ066>068-077>081-088>096-101>105-140000-
...SOUTHWEST MISSOURI...

CITY           SKY/WX    TMP DP  RH WIND       PRES   REMARKS
SPRINGFIELD    CLEAR     55  27  34 W9        29.77S
JOPLIN         CLEAR     56  28  34 W8        29.82R
BRANSON        CLEAR     55  25  30 NW7       29.81R

$$
MOZ032>034-039>042-045>050-055>058-069>072-140000-
...CENTRAL MISSOURI...

CITY           SKY/WX    TMP DP  RH WIND       PRES   REMARKS
COLUMBIA       CLEAR     53  28  38 NW15G21   29.71R
JEFFERSON CITY CLEAR     55  28  35 NW14      29.71R
ROLLA          CLEAR     53  30  41 NW12G24   29.70R
SEDALIA        CLEAR     53  28  38 NW9       29.76R
WHITEMAN AFB   CLEAR     53  26  34 NW12      29.73R
WARRENSBURG    CLEAR     52  27  37 W8        29.78R
OSAGE BEACH    CLEAR     55  30  38 NW10G16   29.74R

$$
MOZ051-052-059>065-140000-
...EAST CENTRAL MISSOURI...

CITY           SKY/WX    TMP DP  RH WIND       PRES   REMARKS
ST LOUIS INTL  PTCLDY    52  34  50 NW12      29.64R
SPIRIT OF STL  PTCLDY    55  30  38 NW23G35   29.65R
ST CHARLES     CLEAR     50  33  52 NW14      29.64R

$$
MOZ072>076-082>087-097>100-106>115-140000-
...SOUTH CENTRAL AND SOUTHEAST MISSOURI...

CITY           SKY/WX    TMP DP  RH WIND       PRES   REMARKS
CAPE GIRARDEAU CLEAR     49  27  42 SW14      29.66R
FARMINGTON     CLEAR     54  28  36 W6        29.67R
POPLAR BLUFF   CLEAR     55  26  32 SW8       29.69R
WEST PLAINS    CLEAR     54  25  32 W12G21    29.75R

$$


USA.gov is the U.S. government's official web portal to all federal, state and local government web resources and services.